contact:dominique.lefevre@mio.osupytheas.fr, maurice.libes@osupytheas.fr, didier.mallarino@osupytheas.fr
Project:EMSO http://www.emso-fr.org/EMSO-France
Depth: 2436.0 m
Title:EMSO Ligure Ouest : Data MII capteur CSTAR
DateTime,Latitude,Longitude,Instrument_Serial,Reference_Counts,Signal_Counts,Corrected_Signal_raw_counts,Calculated_Beam_c_inverse_meters,Internal_thermistor_counts
DateTime,Latitude,Longitude,Instrument_Serial,Reference_Counts,Signal_Counts,Corrected_Signal_raw_counts,Calculated_Beam_c_inverse_meters,Internal_thermistor_counts
2021-05-05T00:02:54,42.805,6.029,CST-1368DR,5483,7657,14993,0.163,551
2021-05-05T00:05:56,42.805,6.029,CST-1368DR,5483,7656,14992,0.163,551
2021-05-05T00:08:57,42.805,6.029,CST-1368DR,5483,7655,14989,0.164,551
2021-05-05T00:11:59,42.805,6.029,CST-1368DR,5483,7657,14994,0.163,550
2021-05-05T00:15:00,42.805,6.029,CST-1368DR,5483,7657,14994,0.163,551
2021-05-05T00:18:02,42.805,6.029,CST-1368DR,5483,7656,14991,0.163,550
2021-05-05T00:21:03,42.805,6.029,CST-1368DR,5483,7658,14996,0.162,551
2021-05-05T00:24:05,42.805,6.029,CST-1368DR,5483,7658,14996,0.162,551
2021-05-05T00:27:07,42.805,6.029,CST-1368DR,5483,7644,14968,0.170,551
2021-05-05T00:30:08,42.805,6.029,CST-1368DR,5483,7658,14995,0.162,551
2021-05-05T00:33:10,42.805,6.029,CST-1368DR,5483,7658,14995,0.162,551
2021-05-05T00:36:11,42.805,6.029,CST-1368DR,5483,7658,14995,0.162,551
2021-05-05T00:39:13,42.805,6.029,CST-1368DR,5483,7657,14993,0.163,550
2021-05-05T00:42:15,42.805,6.029,CST-1368DR,5483,7657,14993,0.163,551
2021-05-05T00:45:16,42.805,6.029,CST-1368DR,5483,7658,14996,0.162,551
2021-05-05T00:48:18,42.805,6.029,CST-1368DR,5483,7657,14993,0.163,551
2021-05-05T00:51:19,42.805,6.029,CST-1368DR,5483,7658,14995,0.162,551
2021-05-05T00:54:21,42.805,6.029,CST-1368DR,5483,7657,14993,0.163,551
2021-05-05T00:57:22,42.805,6.029,CST-1368DR,5483,7657,14993,0.163,551
2021-05-05T01:00:24,42.805,6.029,CST-1368DR,5483,7657,14994,0.163,551
2021-05-05T01:03:26,42.805,6.029,CST-1368DR,5483,7657,14993,0.163,551
2021-05-05T01:06:27,42.805,6.029,CST-1368DR,5483,7656,14992,0.163,551
2021-05-05T01:09:29,42.805,6.029,CST-1368DR,5483,7657,14994,0.163,551
2021-05-05T01:12:30,42.805,6.029,CST-1368DR,5483,7657,14993,0.163,551
2021-05-05T01:15:32,42.805,6.029,CST-1368DR,5483,7656,14992,0.163,551
2021-05-05T01:18:34,42.805,6.029,CST-1368DR,5483,7656,14992,0.163,551
2021-05-05T01:21:35,42.805,6.029,CST-1368DR,5483,7657,14994,0.163,551
2021-05-05T01:24:37,42.805,6.029,CST-1368DR,5483,7656,14992,0.163,551
2021-05-05T01:27:38,42.805,6.029,CST-1368DR,5483,7657,14993,0.163,551
2021-05-05T01:30:40,42.805,6.029,CST-1368DR,5483,7657,14993,0.163,551
2021-05-05T01:33:41,42.805,6.029,CST-1368DR,5483,7657,14993,0.163,551
2021-05-05T01:36:43,42.805,6.029,CST-1368DR,5483,7657,14994,0.163,551
2021-05-05T01:39:45,42.805,6.029,CST-1368DR,5483,7656,14991,0.163,551
2021-05-05T01:42:46,42.805,6.029,CST-1368DR,5483,7658,14995,0.162,551
2021-05-05T01:45:48,42.805,6.029,CST-1368DR,5483,7658,14995,0.162,551
2021-05-05T01:48:49,42.805,6.029,CST-1368DR,5483,7657,14993,0.163,551
2021-05-05T01:51:51,42.805,6.029,CST-1368DR,5483,7658,14995,0.162,551
2021-05-05T01:54:52,42.805,6.029,CST-1368DR,5483,7657,14993,0.163,551
2021-05-05T01:57:54,42.805,6.029,CST-1368DR,5483,7655,14989,0.164,551
2021-05-05T02:00:56,42.805,6.029,CST-1368DR,5483,7658,14995,0.162,551
2021-05-05T02:03:57,42.805,6.029,CST-1368DR,5483,7657,14993,0.163,551
2021-05-05T02:06:59,42.805,6.029,CST-1368DR,5483,7657,14993,0.163,551
2021-05-05T02:10:00,42.805,6.029,CST-1368DR,5483,7657,14993,0.163,551
2021-05-05T02:13:02,42.805,6.029,CST-1368DR,5483,7658,14995,0.162,551
2021-05-05T02:16:04,42.805,6.029,CST-1368DR,5483,7657,14994,0.163,551
2021-05-05T02:19:05,42.805,6.029,CST-1368DR,5483,7657,14993,0.163,550
2021-05-05T02:22:07,42.805,6.029,CST-1368DR,5483,7656,14992,0.163,551
2021-05-05T02:25:08,42.805,6.029,CST-1368DR,5483,7652,14985,0.165,551
2021-05-05T02:28:10,42.805,6.029,CST-1368DR,5483,7657,14993,0.163,551
2021-05-05T02:31:11,42.805,6.029,CST-1368DR,5483,7655,14990,0.164,551
2021-05-05T02:34:13,42.805,6.029,CST-1368DR,5483,7656,14991,0.163,551
2021-05-05T02:37:15,42.805,6.029,CST-1368DR,5483,7656,14992,0.163,551
2021-05-05T02:40:16,42.805,6.029,CST-1368DR,5483,7656,14991,0.163,551
2021-05-05T02:43:18,42.805,6.029,CST-1368DR,5483,7655,14990,0.164,551
2021-05-05T02:46:19,42.805,6.029,CST-1368DR,5483,7652,14984,0.165,551
2021-05-05T02:49:21,42.805,6.029,CST-1368DR,5483,7656,14992,0.163,551
2021-05-05T02:52:22,42.805,6.029,CST-1368DR,5483,7656,14991,0.163,551
2021-05-05T02:55:24,42.805,6.029,CST-1368DR,5483,7656,14991,0.163,551
2021-05-05T02:58:26,42.805,6.029,CST-1368DR,5483,7655,14990,0.164,551
2021-05-05T03:01:27,42.805,6.029,CST-1368DR,5483,7655,14990,0.164,551
2021-05-05T03:04:29,42.805,6.029,CST-1368DR,5483,7655,14990,0.164,551
2021-05-05T03:07:30,42.805,6.029,CST-1368DR,5483,7656,14992,0.163,551
2021-05-05T03:10:32,42.805,6.029,CST-1368DR,5483,7655,14990,0.164,551
2021-05-05T03:13:34,42.805,6.029,CST-1368DR,5483,7657,14994,0.163,551
2021-05-05T03:16:35,42.805,6.029,CST-1368DR,5483,7656,14991,0.163,551
2021-05-05T03:19:37,42.805,6.029,CST-1368DR,5483,7657,14993,0.163,551
2021-05-05T03:22:38,42.805,6.029,CST-1368DR,5482,7654,14991,0.163,551
2021-05-05T03:25:40,42.805,6.029,CST-1368DR,5483,7655,14990,0.164,551
2021-05-05T03:28:41,42.805,6.029,CST-1368DR,5483,7658,14995,0.162,551
2021-05-05T03:31:43,42.805,6.029,CST-1368DR,5483,7657,14993,0.163,551
2021-05-05T03:34:45,42.805,6.029,CST-1368DR,5483,7655,14990,0.164,551
2021-05-05T03:37:46,42.805,6.029,CST-1368DR,5483,7657,14993,0.163,551
2021-05-05T03:40:48,42.805,6.029,CST-1368DR,5483,7656,14992,0.163,551
2021-05-05T03:43:49,42.805,6.029,CST-1368DR,5483,7657,14993,0.163,551
2021-05-05T03:46:51,42.805,6.029,CST-1368DR,5483,7656,14991,0.163,551
2021-05-05T03:49:53,42.805,6.029,CST-1368DR,5483,7656,14992,0.163,551
2021-05-05T03:52:54,42.805,6.029,CST-1368DR,5483,7656,14992,0.163,551
2021-05-05T03:55:56,42.805,6.029,CST-1368DR,5482,7655,14993,0.163,551
2021-05-05T03:58:57,42.805,6.029,CST-1368DR,5482,7653,14988,0.164,551
2021-05-05T04:01:59,42.805,6.029,CST-1368DR,5482,7656,14995,0.162,551
2021-05-05T04:05:00,42.805,6.029,CST-1368DR,5482,7655,14992,0.163,551
2021-05-05T04:08:02,42.805,6.029,CST-1368DR,5482,7656,14994,0.163,551
2021-05-05T04:11:04,42.805,6.029,CST-1368DR,5482,7655,14992,0.163,551
2021-05-05T04:14:05,42.805,6.029,CST-1368DR,5482,7654,14990,0.164,551
2021-05-05T04:17:07,42.805,6.029,CST-1368DR,5482,7654,14990,0.164,551
2021-05-05T04:20:08,42.805,6.029,CST-1368DR,5483,7656,14992,0.163,551
2021-05-05T04:23:10,42.805,6.029,CST-1368DR,5482,7655,14992,0.163,551
2021-05-05T04:26:11,42.805,6.029,CST-1368DR,5482,7656,14995,0.162,551
2021-05-05T04:29:13,42.805,6.029,CST-1368DR,5482,7656,14994,0.163,551
2021-05-05T04:32:15,42.805,6.029,CST-1368DR,5482,7657,14996,0.162,551
2021-05-05T04:35:16,42.805,6.029,CST-1368DR,5482,7656,14995,0.162,551
2021-05-05T04:38:18,42.805,6.029,CST-1368DR,5482,7655,14993,0.163,551
2021-05-05T04:41:19,42.805,6.029,CST-1368DR,5482,7656,14995,0.162,551
2021-05-05T04:44:21,42.805,6.029,CST-1368DR,5482,7655,14993,0.163,551
2021-05-05T04:47:23,42.805,6.029,CST-1368DR,5482,7655,14993,0.163,551
2021-05-05T04:50:24,42.805,6.029,CST-1368DR,5482,7656,14994,0.163,551
2021-05-05T04:53:26,42.805,6.029,CST-1368DR,5482,7656,14994,0.163,551
2021-05-05T04:56:27,42.805,6.029,CST-1368DR,5482,7655,14992,0.163,551
2021-05-05T04:59:29,42.805,6.029,CST-1368DR,5482,7654,14991,0.163,551
2021-05-05T05:02:30,42.805,6.029,CST-1368DR,5482,7656,14994,0.163,551
2021-05-05T05:05:32,42.805,6.029,CST-1368DR,5482,7655,14993,0.163,551
2021-05-05T05:08:34,42.805,6.029,CST-1368DR,5482,7655,14992,0.163,551
2021-05-05T05:11:35,42.805,6.029,CST-1368DR,5482,7654,14991,0.163,551
2021-05-05T05:14:37,42.805,6.029,CST-1368DR,5482,7656,14994,0.163,551
2021-05-05T05:17:38,42.805,6.029,CST-1368DR,5482,7655,14993,0.163,551
2021-05-05T05:20:40,42.805,6.029,CST-1368DR,5482,7655,14993,0.163,551
2021-05-05T05:23:42,42.805,6.029,CST-1368DR,5482,7655,14992,0.163,551
2021-05-05T05:26:43,42.805,6.029,CST-1368DR,5482,7656,14994,0.163,551
2021-05-05T05:29:45,42.805,6.029,CST-1368DR,5482,7654,14991,0.163,551
2021-05-05T05:32:46,42.805,6.029,CST-1368DR,5482,7655,14993,0.163,551
2021-05-05T05:35:48,42.805,6.029,CST-1368DR,5482,7656,14994,0.163,551
2021-05-05T05:38:49,42.805,6.029,CST-1368DR,5482,7655,14993,0.163,551
2021-05-05T05:41:51,42.805,6.029,CST-1368DR,5482,7654,14991,0.163,551
2021-05-05T05:44:53,42.805,6.029,CST-1368DR,5482,7657,14995,0.162,551
2021-05-05T05:47:54,42.805,6.029,CST-1368DR,5482,7655,14992,0.163,551
2021-05-05T05:50:56,42.805,6.029,CST-1368DR,5482,7647,14976,0.167,551
2021-05-05T05:53:57,42.805,6.029,CST-1368DR,5482,7653,14988,0.164,551
2021-05-05T05:56:59,42.805,6.029,CST-1368DR,5482,7654,14991,0.163,551
2021-05-05T06:00:00,42.805,6.029,CST-1368DR,5482,7656,14994,0.163,551
2021-05-05T06:03:02,42.805,6.029,CST-1368DR,5482,7655,14993,0.163,551
2021-05-05T06:06:04,42.805,6.029,CST-1368DR,5482,7655,14992,0.163,551
2021-05-05T06:09:05,42.805,6.029,CST-1368DR,5482,7654,14991,0.163,551
2021-05-05T06:12:07,42.805,6.029,CST-1368DR,5482,7656,14994,0.163,551
2021-05-05T06:15:08,42.805,6.029,CST-1368DR,5482,7655,14993,0.163,551
2021-05-05T06:18:10,42.805,6.029,CST-1368DR,5482,7656,14994,0.163,551
2021-05-05T06:21:12,42.805,6.029,CST-1368DR,5482,7656,14994,0.163,550
2021-05-05T06:24:13,42.805,6.029,CST-1368DR,5482,7654,14990,0.164,551
2021-05-05T06:27:15,42.805,6.029,CST-1368DR,5482,7655,14992,0.163,551
2021-05-05T06:30:16,42.805,6.029,CST-1368DR,5482,7655,14992,0.163,551
2021-05-05T06:33:18,42.805,6.029,CST-1368DR,5482,7655,14993,0.163,551
2021-05-05T06:36:19,42.805,6.029,CST-1368DR,5482,7655,14993,0.163,550
2021-05-05T06:39:21,42.805,6.029,CST-1368DR,5482,7653,14989,0.164,551
2021-05-05T06:42:23,42.805,6.029,CST-1368DR,5482,7656,14994,0.163,551
2021-05-05T06:45:24,42.805,6.029,CST-1368DR,5482,7656,14994,0.163,551
2021-05-05T06:48:26,42.805,6.029,CST-1368DR,5482,7655,14992,0.163,551
2021-05-05T06:51:27,42.805,6.029,CST-1368DR,5482,7655,14993,0.163,551
2021-05-05T06:54:29,42.805,6.029,CST-1368DR,5482,7655,14992,0.163,551
2021-05-05T06:57:31,42.805,6.029,CST-1368DR,5482,7652,14986,0.165,551
2021-05-05T07:00:32,42.805,6.029,CST-1368DR,5482,7656,14994,0.163,551
2021-05-05T07:03:34,42.805,6.029,CST-1368DR,5482,7656,14994,0.163,551
2021-05-05T07:06:35,42.805,6.029,CST-1368DR,5482,7655,14993,0.163,551
2021-05-05T07:09:37,42.805,6.029,CST-1368DR,5482,7654,14990,0.164,551
2021-05-05T07:12:38,42.805,6.029,CST-1368DR,5482,7653,14989,0.164,551
2021-05-05T07:15:40,42.805,6.029,CST-1368DR,5482,7653,14988,0.164,551
2021-05-05T07:18:42,42.805,6.029,CST-1368DR,5482,7651,14985,0.165,551
2021-05-05T07:21:43,42.805,6.029,CST-1368DR,5482,7655,14992,0.163,551
2021-05-05T07:24:45,42.805,6.029,CST-1368DR,5482,7655,14993,0.163,551
2021-05-05T07:27:46,42.805,6.029,CST-1368DR,5482,7655,14993,0.163,551
2021-05-05T07:30:48,42.805,6.029,CST-1368DR,5482,7654,14991,0.163,550
2021-05-05T07:33:49,42.805,6.029,CST-1368DR,5482,7652,14987,0.164,551
2021-05-05T07:36:51,42.805,6.029,CST-1368DR,5482,7653,14989,0.164,551
2021-05-05T07:39:53,42.805,6.029,CST-1368DR,5482,7655,14993,0.163,551
2021-05-05T07:42:54,42.805,6.029,CST-1368DR,5482,7652,14987,0.164,551
2021-05-05T07:45:56,42.805,6.029,CST-1368DR,5482,7653,14989,0.164,551
2021-05-05T07:48:57,42.805,6.029,CST-1368DR,5482,7653,14988,0.164,551
2021-05-05T07:51:59,42.805,6.029,CST-1368DR,5482,7654,14991,0.163,551
2021-05-05T07:55:01,42.805,6.029,CST-1368DR,5482,7653,14989,0.164,551
2021-05-05T07:58:02,42.805,6.029,CST-1368DR,5482,7655,14993,0.163,551
2021-05-05T08:01:04,42.805,6.029,CST-1368DR,5482,7653,14988,0.164,551
2021-05-05T08:04:05,42.805,6.029,CST-1368DR,5482,7652,14986,0.165,551
2021-05-05T08:07:07,42.805,6.029,CST-1368DR,5482,7654,14990,0.164,551
2021-05-05T08:10:08,42.805,6.029,CST-1368DR,5482,7654,14991,0.163,551
2021-05-05T08:13:10,42.805,6.029,CST-1368DR,5482,7654,14991,0.163,551
2021-05-05T08:16:12,42.805,6.029,CST-1368DR,5482,7655,14993,0.163,551
2021-05-05T08:19:13,42.805,6.029,CST-1368DR,5482,7654,14991,0.163,551
2021-05-05T08:22:15,42.805,6.029,CST-1368DR,5482,7654,14991,0.163,551
2021-05-05T08:25:16,42.805,6.029,CST-1368DR,5482,7654,14991,0.163,551
2021-05-05T08:28:18,42.805,6.029,CST-1368DR,5482,7655,14992,0.163,551
2021-05-05T08:31:20,42.805,6.029,CST-1368DR,5482,7655,14992,0.163,551
2021-05-05T08:34:21,42.805,6.029,CST-1368DR,5482,7655,14993,0.163,551
2021-05-05T08:37:23,42.805,6.029,CST-1368DR,5482,7655,14993,0.163,551
2021-05-05T08:40:24,42.805,6.029,CST-1368DR,5482,7654,14991,0.163,551
2021-05-05T08:43:26,42.805,6.029,CST-1368DR,5482,7654,14990,0.164,551
2021-05-05T08:46:27,42.805,6.029,CST-1368DR,5482,7654,14991,0.163,551
2021-05-05T08:49:29,42.805,6.029,CST-1368DR,5482,7654,14990,0.164,551
2021-05-05T08:52:31,42.805,6.029,CST-1368DR,5482,7655,14992,0.163,551
2021-05-05T08:55:32,42.805,6.029,CST-1368DR,5482,7654,14991,0.163,551
2021-05-05T08:58:34,42.805,6.029,CST-1368DR,5482,7655,14992,0.163,551
2021-05-05T09:01:35,42.805,6.029,CST-1368DR,5482,7654,14991,0.163,551
2021-05-05T09:04:37,42.805,6.029,CST-1368DR,5482,7655,14992,0.163,551
2021-05-05T09:07:38,42.805,6.029,CST-1368DR,5482,7654,14991,0.163,551
2021-05-05T09:10:40,42.805,6.029,CST-1368DR,5482,7654,14991,0.163,551
2021-05-05T09:13:42,42.805,6.029,CST-1368DR,5482,7653,14989,0.164,551
2021-05-05T09:16:43,42.805,6.029,CST-1368DR,5482,7654,14991,0.163,551
2021-05-05T09:19:45,42.805,6.029,CST-1368DR,5482,7655,14992,0.163,551
2021-05-05T09:22:46,42.805,6.029,CST-1368DR,5482,7655,14993,0.163,551
2021-05-05T09:25:48,42.805,6.029,CST-1368DR,5482,7654,14991,0.163,551
2021-05-05T09:28:50,42.805,6.029,CST-1368DR,5482,7655,14992,0.163,551
2021-05-05T09:31:51,42.805,6.029,CST-1368DR,5482,7654,14991,0.163,551
2021-05-05T09:34:53,42.805,6.029,CST-1368DR,5482,7654,14991,0.163,551
2021-05-05T09:37:54,42.805,6.029,CST-1368DR,5482,7653,14989,0.164,551
2021-05-05T09:40:56,42.805,6.029,CST-1368DR,5482,7653,14989,0.164,551
2021-05-05T09:43:57,42.805,6.029,CST-1368DR,5482,7654,14991,0.163,551
2021-05-05T09:46:59,42.805,6.029,CST-1368DR,5482,7654,14991,0.163,551
2021-05-05T09:50:01,42.805,6.029,CST-1368DR,5482,7654,14990,0.164,551
2021-05-05T09:53:02,42.805,6.029,CST-1368DR,5482,7653,14989,0.164,551
2021-05-05T09:56:04,42.805,6.029,CST-1368DR,5482,7654,14991,0.163,551
2021-05-05T09:59:05,42.805,6.029,CST-1368DR,5482,7654,14990,0.164,551
2021-05-05T10:02:07,42.805,6.029,CST-1368DR,5482,7653,14989,0.164,551
2021-05-05T10:05:09,42.805,6.029,CST-1368DR,5482,7654,14991,0.163,550
2021-05-05T10:08:10,42.805,6.029,CST-1368DR,5482,7653,14989,0.164,551
2021-05-05T10:11:12,42.805,6.029,CST-1368DR,5482,7650,14982,0.166,551
2021-05-05T10:14:13,42.805,6.029,CST-1368DR,5482,7652,14987,0.164,551
2021-05-05T10:17:15,42.805,6.029,CST-1368DR,5482,7652,14986,0.165,551
2021-05-05T10:20:16,42.805,6.029,CST-1368DR,5482,7654,14990,0.164,551
2021-05-05T10:23:18,42.805,6.029,CST-1368DR,5482,7652,14987,0.164,551
2021-05-05T10:26:20,42.805,6.029,CST-1368DR,5482,7653,14989,0.164,551
2021-05-05T10:29:21,42.805,6.029,CST-1368DR,5482,7653,14989,0.164,551
2021-05-05T10:32:23,42.805,6.029,CST-1368DR,5482,7653,14989,0.164,551
2021-05-05T10:35:24,42.805,6.029,CST-1368DR,5482,7653,14989,0.164,551
2021-05-05T10:38:26,42.805,6.029,CST-1368DR,5482,7653,14989,0.164,551
2021-05-05T10:41:27,42.805,6.029,CST-1368DR,5482,7653,14989,0.164,551
2021-05-05T10:44:29,42.805,6.029,CST-1368DR,5482,7653,14989,0.164,551
2021-05-05T10:47:31,42.805,6.029,CST-1368DR,5482,7653,14989,0.164,551
2021-05-05T10:50:32,42.805,6.029,CST-1368DR,5482,7653,14988,0.164,550
2021-05-05T10:53:34,42.805,6.029,CST-1368DR,5482,7653,14988,0.164,551
2021-05-05T10:56:35,42.805,6.029,CST-1368DR,5482,7653,14988,0.164,551
2021-05-05T10:59:37,42.805,6.029,CST-1368DR,5482,7653,14989,0.164,551
2021-05-05T11:02:39,42.805,6.029,CST-1368DR,5482,7653,14988,0.164,551
2021-05-05T11:05:40,42.805,6.029,CST-1368DR,5482,7655,14992,0.163,551
2021-05-05T11:08:42,42.805,6.029,CST-1368DR,5482,7653,14989,0.164,551
2021-05-05T11:11:43,42.805,6.029,CST-1368DR,5482,7653,14989,0.164,551
2021-05-05T11:14:45,42.805,6.029,CST-1368DR,5482,7654,14991,0.163,551
2021-05-05T11:17:46,42.805,6.029,CST-1368DR,5482,7653,14988,0.164,551
2021-05-05T11:20:48,42.805,6.029,CST-1368DR,5482,7654,14990,0.164,551
2021-05-05T11:23:50,42.805,6.029,CST-1368DR,5482,7654,14990,0.164,551
2021-05-05T11:26:51,42.805,6.029,CST-1368DR,5482,7650,14982,0.166,551
2021-05-05T11:29:53,42.805,6.029,CST-1368DR,5482,7653,14988,0.164,551
2021-05-05T11:32:54,42.805,6.029,CST-1368DR,5482,7654,14990,0.164,551
2021-05-05T11:35:56,42.805,6.029,CST-1368DR,5482,7653,14989,0.164,551
2021-05-05T11:38:58,42.805,6.029,CST-1368DR,5482,7652,14987,0.164,551
2021-05-05T11:41:59,42.805,6.029,CST-1368DR,5482,7650,14982,0.166,551
2021-05-05T11:45:01,42.805,6.029,CST-1368DR,5482,7649,14981,0.166,551
2021-05-05T11:48:02,42.805,6.029,CST-1368DR,5482,7649,14980,0.166,551
2021-05-05T11:51:04,42.805,6.029,CST-1368DR,5482,7647,14977,0.167,551
2021-05-05T11:54:05,42.805,6.029,CST-1368DR,5482,7645,14973,0.168,551
2021-05-05T11:57:07,42.805,6.029,CST-1368DR,5482,7645,14972,0.168,551
2021-05-05T12:00:09,42.805,6.029,CST-1368DR,5482,7640,14963,0.171,551
2021-05-05T12:03:10,42.805,6.029,CST-1368DR,5482,7645,14972,0.168,551
2021-05-05T12:06:12,42.805,6.029,CST-1368DR,5482,7640,14962,0.171,551
2021-05-05T12:09:13,42.805,6.029,CST-1368DR,5482,7642,14967,0.170,551
2021-05-05T12:12:15,42.805,6.029,CST-1368DR,5482,7643,14968,0.170,551
2021-05-05T12:15:17,42.805,6.029,CST-1368DR,5482,7643,14968,0.170,551
2021-05-05T12:18:18,42.805,6.029,CST-1368DR,5482,7640,14963,0.171,551
2021-05-05T12:21:20,42.805,6.029,CST-1368DR,5482,7640,14962,0.171,551
2021-05-05T12:24:21,42.805,6.029,CST-1368DR,5482,7641,14965,0.170,551
2021-05-05T12:27:23,42.805,6.029,CST-1368DR,5482,7639,14962,0.171,551
2021-05-05T12:30:24,42.805,6.029,CST-1368DR,5482,7640,14963,0.171,551
2021-05-05T12:33:26,42.805,6.029,CST-1368DR,5482,7638,14960,0.172,551
2021-05-05T12:36:28,42.805,6.029,CST-1368DR,5482,7640,14963,0.171,551
2021-05-05T12:39:29,42.805,6.029,CST-1368DR,5482,7638,14959,0.172,551
2021-05-05T12:42:31,42.805,6.029,CST-1368DR,5482,7638,14960,0.172,551
2021-05-05T12:45:32,42.805,6.029,CST-1368DR,5481,7638,14962,0.171,551
2021-05-05T12:48:34,42.805,6.029,CST-1368DR,5481,7639,14963,0.171,551
2021-05-05T12:51:35,42.805,6.029,CST-1368DR,5481,7638,14961,0.171,551
2021-05-05T12:54:37,42.805,6.029,CST-1368DR,5481,7639,14963,0.171,551
2021-05-05T12:57:39,42.805,6.029,CST-1368DR,5481,7640,14965,0.170,551
2021-05-05T13:00:40,42.805,6.029,CST-1368DR,5481,7639,14963,0.171,551
2021-05-05T13:03:42,42.805,6.029,CST-1368DR,5482,7640,14963,0.171,551
2021-05-05T13:06:43,42.805,6.029,CST-1368DR,5482,7640,14963,0.171,551
2021-05-05T13:09:45,42.805,6.029,CST-1368DR,5481,7638,14961,0.171,551
2021-05-05T13:12:47,42.805,6.029,CST-1368DR,5481,7635,14956,0.173,551
2021-05-05T13:15:48,42.805,6.029,CST-1368DR,5481,7632,14949,0.175,551
2021-05-05T13:18:50,42.805,6.029,CST-1368DR,5481,7640,14965,0.170,551
2021-05-05T13:21:51,42.805,6.029,CST-1368DR,5481,7647,14979,0.167,551
2021-05-05T13:24:53,42.805,6.029,CST-1368DR,5481,7639,14964,0.171,551
2021-05-05T13:27:54,42.805,6.029,CST-1368DR,5481,7639,14964,0.171,551
2021-05-05T13:30:56,42.805,6.029,CST-1368DR,5482,7650,14982,0.166,551
2021-05-05T13:33:58,42.805,6.029,CST-1368DR,5481,7645,14975,0.168,551
2021-05-05T13:36:59,42.805,6.029,CST-1368DR,5481,7645,14975,0.168,551
2021-05-05T13:40:01,42.805,6.029,CST-1368DR,5481,7638,14961,0.171,551
2021-05-05T13:43:02,42.805,6.029,CST-1368DR,5481,7639,14963,0.171,551
2021-05-05T13:46:04,42.805,6.029,CST-1368DR,5481,7639,14963,0.171,551
2021-05-05T13:49:06,42.805,6.029,CST-1368DR,5481,7641,14968,0.170,551
2021-05-05T13:52:07,42.805,6.029,CST-1368DR,5481,7639,14963,0.171,551
2021-05-05T13:55:09,42.805,6.029,CST-1368DR,5481,7641,14967,0.170,551
2021-05-05T13:58:10,42.805,6.029,CST-1368DR,5481,7639,14964,0.171,551
2021-05-05T14:01:12,42.805,6.029,CST-1368DR,5481,7640,14965,0.170,550
2021-05-05T14:04:13,42.805,6.029,CST-1368DR,5481,7641,14967,0.170,551
2021-05-05T14:07:15,42.805,6.029,CST-1368DR,5481,7639,14964,0.171,551
2021-05-05T14:10:17,42.805,6.029,CST-1368DR,5481,7636,14958,0.172,551
2021-05-05T14:13:18,42.805,6.029,CST-1368DR,5481,7637,14960,0.172,551
2021-05-05T14:16:20,42.805,6.029,CST-1368DR,5481,7653,14992,0.163,551
2021-05-05T14:19:21,42.805,6.029,CST-1368DR,5481,7646,14977,0.167,551
2021-05-05T14:22:23,42.805,6.029,CST-1368DR,5481,7638,14961,0.171,551
2021-05-05T14:25:25,42.805,6.029,CST-1368DR,5481,7632,14950,0.174,551
2021-05-05T14:28:26,42.805,6.029,CST-1368DR,5481,7639,14964,0.171,551
2021-05-05T14:31:28,42.805,6.029,CST-1368DR,5481,7647,14979,0.167,551
2021-05-05T14:34:29,42.805,6.029,CST-1368DR,5481,7646,14978,0.167,551
2021-05-05T14:37:31,42.805,6.029,CST-1368DR,5481,7637,14959,0.172,551
2021-05-05T14:40:32,42.805,6.029,CST-1368DR,5481,7648,14982,0.166,551
2021-05-05T14:43:34,42.805,6.029,CST-1368DR,5481,7648,14981,0.166,551
2021-05-05T14:46:36,42.805,6.029,CST-1368DR,5481,7649,14983,0.166,551
2021-05-05T14:49:37,42.805,6.029,CST-1368DR,5481,7649,14983,0.166,551
2021-05-05T14:52:39,42.805,6.029,CST-1368DR,5481,7654,14993,0.163,551
2021-05-05T14:55:40,42.805,6.029,CST-1368DR,5481,7650,14985,0.165,551
2021-05-05T14:58:42,42.805,6.029,CST-1368DR,5481,7653,14990,0.164,551
2021-05-05T15:01:43,42.805,6.029,CST-1368DR,5481,7645,14976,0.167,551
2021-05-05T15:04:45,42.805,6.029,CST-1368DR,5481,7650,14984,0.165,551
2021-05-05T15:07:47,42.805,6.029,CST-1368DR,5481,7648,14981,0.166,551
2021-05-05T15:10:48,42.805,6.029,CST-1368DR,5481,7650,14984,0.165,551
2021-05-05T15:13:50,42.805,6.029,CST-1368DR,5481,7652,14989,0.164,551
2021-05-05T15:16:51,42.805,6.029,CST-1368DR,5481,7649,14982,0.166,551
2021-05-05T15:19:53,42.805,6.029,CST-1368DR,5481,7651,14988,0.164,551
2021-05-05T15:22:55,42.805,6.029,CST-1368DR,5481,7649,14984,0.165,551
2021-05-05T15:25:56,42.805,6.029,CST-1368DR,5481,7651,14987,0.164,551
2021-05-05T15:28:58,42.805,6.029,CST-1368DR,5481,7650,14986,0.165,551
2021-05-05T15:31:59,42.805,6.029,CST-1368DR,5481,7651,14988,0.164,551
2021-05-05T15:35:01,42.805,6.029,CST-1368DR,5481,7653,14992,0.163,551
2021-05-05T15:38:02,42.805,6.029,CST-1368DR,5481,7649,14983,0.166,551
2021-05-05T15:41:04,42.805,6.029,CST-1368DR,5481,7649,14983,0.166,551
2021-05-05T15:44:06,42.805,6.029,CST-1368DR,5481,7649,14982,0.166,551
2021-05-05T15:47:07,42.805,6.029,CST-1368DR,5481,7649,14983,0.166,551
2021-05-05T15:50:09,42.805,6.029,CST-1368DR,5481,7651,14987,0.164,551
2021-05-05T15:53:10,42.805,6.029,CST-1368DR,5481,7649,14983,0.166,551
2021-05-05T15:56:12,42.805,6.029,CST-1368DR,5481,7650,14985,0.165,551
2021-05-05T15:59:13,42.805,6.029,CST-1368DR,5481,7650,14984,0.165,551
2021-05-05T16:02:15,42.805,6.029,CST-1368DR,5481,7650,14984,0.165,551
2021-05-05T16:05:17,42.805,6.029,CST-1368DR,5481,7648,14981,0.166,551
2021-05-05T16:08:18,42.805,6.029,CST-1368DR,5481,7652,14989,0.164,551
2021-05-05T16:11:20,42.805,6.029,CST-1368DR,5481,7650,14984,0.165,551
2021-05-05T16:14:21,42.805,6.029,CST-1368DR,5481,7650,14986,0.165,551
2021-05-05T16:17:23,42.805,6.029,CST-1368DR,5481,7650,14985,0.165,551
2021-05-05T16:20:25,42.805,6.029,CST-1368DR,5481,7649,14984,0.165,550
2021-05-05T16:23:26,42.805,6.029,CST-1368DR,5481,7654,14993,0.163,551
2021-05-05T16:26:28,42.805,6.029,CST-1368DR,5481,7653,14990,0.164,551
2021-05-05T16:29:29,42.805,6.029,CST-1368DR,5481,7653,14992,0.163,551
2021-05-05T16:32:31,42.805,6.029,CST-1368DR,5481,7653,14992,0.163,550
2021-05-05T16:35:32,42.805,6.029,CST-1368DR,5481,7652,14989,0.164,551
2021-05-05T16:38:34,42.805,6.029,CST-1368DR,5481,7655,14995,0.162,551
2021-05-05T16:41:36,42.805,6.029,CST-1368DR,5481,7653,14991,0.163,551
2021-05-05T16:44:37,42.805,6.029,CST-1368DR,5481,7653,14991,0.163,551
2021-05-05T16:47:39,42.805,6.029,CST-1368DR,5481,7654,14992,0.163,551
2021-05-05T16:50:40,42.805,6.029,CST-1368DR,5481,7650,14985,0.165,551
2021-05-05T16:53:42,42.805,6.029,CST-1368DR,5481,7649,14984,0.165,551